Simultaneous Nadir Overpasses (SNOs) Predictions

Prediction of SNOs between AQUA and METOP-C Satellite Orbit:

Table of predicted SNOs for the next 14.0 days since TLE Epoch: 8/31/2024
Index Date (AQUA) Time (AQUA) Lat,Lon (AQUA) SZA (AQUA ) Date (METOP-C) Time (METOP-C) Lat,Lon (METOP-C) SZA (METOP-C ) Distance(km) Time Diff (sec)
1 09/01/2024 20:24:08 -75.61, 53.41 112.34 09/01/2024 20:23:33 -75.63, 53.37 112.31 2.45 35
2 09/01/2024 21:13:32 75.71,-139.21 67.78 09/01/2024 21:14:12 75.70,-139.07 67.77 3.89 40
3 09/04/2024 10:54:52 -75.64,-164.31 111.35 09/04/2024 10:53:55 -75.65,-164.16 111.34 4.09 57
4 09/04/2024 11:44:15 75.69, 3.20 68.72 09/04/2024 11:44:35 75.67, 3.24 68.70 2.43 20
5 09/07/2024 01:25:30 -75.59, -21.78 110.43 09/07/2024 01:24:18 -75.60, -21.90 110.42 3.61 72
6 09/07/2024 02:14:53 75.65, 145.72 69.65 09/07/2024 02:14:57 75.67, 145.64 69.67 2.95 4
7 09/07/2024 03:04:22 -76.08, -47.94 109.91 09/07/2024 03:05:30 -76.05, -45.77 109.94 58.15 68
8 09/09/2024 15:55:56 -75.17, 121.83 109.87 09/09/2024 15:54:50 -75.11, 119.02 109.93 80.60 66
9 09/09/2024 16:45:28 75.68, -71.96 70.66 09/09/2024 16:45:18 75.69, -71.87 70.67 3.01 10
10 09/09/2024 17:34:49 -75.72, 95.59 109.30 09/09/2024 17:35:59 -75.70, 95.50 109.31 2.86 70
11 09/12/2024 07:15:57 75.68, 70.46 71.65 09/12/2024 07:15:38 75.69, 70.56 71.67 3.18 19



Historial Predications of SNOs between AQUA and METOP-C
